This is the latest recevied weather packets stored in our database for station/object HS2LXA-WX. If no packets are shown the sender has not sent any weather packets the latest 1 day(s).
| Time | Temp. | Humidity | Pressure | Rain* | Wind** | Luminosity | Snow |
|---|---|---|---|---|---|---|---|
| 1778043131 | 32.78° C | 79% | 1013.1 hPa | 0 mm | 5.36 m/s, 0° | - | - |
| 1778042530 | 32.78° C | 78% | 1013.2 hPa | 0 mm | 4.47 m/s, 112° | - | - |
| 1778041928 | 32.78° C | 78% | 1013.2 hPa | 0 mm | 0.89 m/s, 315° | - | - |
| 1778040933 | 32.78° C | 77% | 1013.1 hPa | 0 mm | 3.13 m/s, 112° | - | - |
| 1778040333 | 33.33° C | 76% | 1013.1 hPa | 0 mm | 4.02 m/s, 0° | - | - |
| 1778039728 | 33.33° C | 76% | 1013.1 hPa | 0 mm | 8.05 m/s, 0° | - | - |
| 1778039128 | 33.33° C | 75% | 1013.2 hPa | 0 mm | 6.71 m/s, 0° | - | - |
| 1778038143 | 33.33° C | 76% | 1013.1 hPa | 0 mm | 3.13 m/s, 0° | - | - |
| 1778037541 | 32.78° C | 78% | 1013.1 hPa | 0 mm | 2.68 m/s, 225° | - | - |
| 1778036805 | 33.33° C | 77% | 1013.2 hPa | 0 mm | 3.13 m/s, 0° | - | - |
| 1778036204 | 33.33° C | 74% | 1013.1 hPa | 0 mm | 9.39 m/s, 225° | - | - |
| 1778035601 | 34.44° C | 69% | 1013.1 hPa | 0 mm | 2.68 m/s, 225° | - | - |
| 1778035001 | 34.44° C | 69% | 1013.1 hPa | 0 mm | 2.24 m/s, 225° | - | - |
| 1778034400 | 33.89° C | 71% | 1013.1 hPa | 0 mm | 3.13 m/s, 67° | - | - |
| 1778033800 | 33.33° C | 73% | 1013.2 hPa | 0 mm | 0.89 m/s, 0° | - | - |
| 1778033200 | 33.33° C | 76% | 1013.2 hPa | 0 mm | 7.6 m/s, 0° | - | - |
| 1778032599 | 32.78° C | 78% | 1013.1 hPa | 0 mm | 0 m/s | - | - |
| 1778031999 | 32.78° C | 76% | 1013.1 hPa | 0 mm | 1.79 m/s, 0° | - | - |
| 1778030859 | 32.22° C | 79% | 1013.2 hPa | 0 mm | 2.68 m/s, 0° | - | - |
| 1778030259 | 32.22° C | 82% | 1013.2 hPa | 0 mm | 0.45 m/s, 22° | - | - |
| 1778029658 | 31.67° C | 83% | 1013.1 hPa | 0 mm | 2.24 m/s, 22° | - | - |
| 1778029058 | 31.67° C | 84% | 1013.2 hPa | 0 mm | 2.68 m/s, 22° | - | - |
| 1778028458 | 31.11° C | 85% | 1013.2 hPa | 0 mm | 1.34 m/s, 0° | - | - |
| 1778027856 | 31.11° C | 85% | 1013.1 hPa | 0 mm | 0.89 m/s, 22° | - | - |
| 1778027255 | 31.11° C | 86% | 1013.1 hPa | 0 mm | 0 m/s | - | - |
* Rain latest hour (hover to see other rain measurements)
** Current wind speed in m/s (hover to see current wind gust speed)